Simultaneous Nadir Overpasses (SNOs) Predictions

Prediction of SNOs between AQUA and METOP-A Satellite Orbit:

Table of predicted SNOs for the next 14.0 days since TLE Epoch: 8/14/2020
Index Date (AQUA) Time (AQUA) Lat,Lon (AQUA) SZA (AQUA ) Date (METOP-A) Time (METOP-A) Lat,Lon (METOP-A) SZA (METOP-A ) Distance(km) Time Diff (sec)
1 08/16/2020 22:38:16 -76.46, 7.80 116.56 08/16/2020 22:37:13 -76.47, 7.81 116.53 1.56 63
2 08/16/2020 23:27:45 76.52, 175.22 63.53 08/16/2020 23:27:52 76.51, 175.29 63.52 1.86 7
3 08/17/2020 00:17:18 -76.88, -18.40 116.04 08/17/2020 00:18:26 -76.86, -16.10 116.21 58.12 68
4 08/19/2020 18:12:32 -76.46, 74.20 115.65 08/19/2020 18:11:37 -76.47, 74.15 115.62 1.57 55
5 08/19/2020 19:02:01 76.53,-118.38 64.45 08/19/2020 19:02:16 76.51,-118.37 64.42 2.14 15
6 08/22/2020 13:46:48 -76.47, 140.60 114.71 08/22/2020 13:46:01 -76.47, 140.50 114.69 2.77 47
7 08/22/2020 14:36:17 76.55, -52.00 65.39 08/22/2020 14:36:39 76.55, -51.88 65.39 3.23 22
8 08/25/2020 09:21:03 -76.49,-153.01 113.74 08/25/2020 09:20:23 -76.51,-153.00 113.70 2.78 40
9 08/25/2020 10:10:32 76.57, 14.36 66.37 08/25/2020 10:11:02 76.55, 14.44 66.34 3.09 30
10 08/28/2020 04:55:19 -76.51, -86.64 112.74 08/28/2020 04:54:47 -76.51, -86.67 112.73 0.70 32
11 08/28/2020 05:44:47 76.54, 80.88 67.32 08/28/2020 05:45:26 76.54, 80.77 67.31 2.91 39
